Location: Llanfihangel-Ystrad
(52.1833°N, 4.1667°W)
Time: 18:38:57
(UTC+00:00)

Cosmos 2219 Rocket - Pass Details

Date: 17 February 2020
Orbit: 828 x 846 km, 71.0° (Epoch: 05 April)

Event Time Altitude Azimuth Distance (km) Brightness Sun altitude
Exits shadow 04:14:47 36° 353° (N) 1,311 3.2 -30.1°
Drops below altitude 10° 04:18:37 10° 24° (NNE) 2,479 5.1 -29.6°
Sets 04:21:11 0° 30° (NNE) 3,417 6.0 -29.2°
